When you browse on this site, cookies collect data to enhance your experience and personalize the content and advertising you see.
Visit our Privacy Policy to learn more. By continuing to use the site, you agree to this use of cookies and data.
  • în România
  • Lista ţărilor
  • Pe 7 zile
  • Temperatura apei
  • Meteo pe hartă
  • Widget-uri
  • user-avatar
    Intrare

    Meteo pe oră la Resht

    Astăzi, 22 August, Joi

    Timp Temperatura Precipitaţii Vânt Presiune Umiditate
    00:00 +27°C° 0 mm 1 m/s 759 mmHg 46%
    01:00 +26°C° 0 mm 1 m/s 759 mmHg 44%
    02:00 +26°C° 0 mm 1 m/s 759 mmHg 42%
    03:00 +26°C° 0 mm 1 m/s 759 mmHg 40%
    04:00 +26°C° 0 mm 1 m/s 759 mmHg 40%
    05:00 +26°C° 0 mm 1 m/s 760 mmHg 40%
    06:00 +27°C° 0 mm 1 m/s 760 mmHg 40%
    07:00 +29°C° 0 mm 1 m/s 760 mmHg 35%
    08:00 +32°C° 0 mm 1 m/s 759 mmHg 30%
    09:00 +32°C° 0 mm 0 m/s 759 mmHg 26%
    10:00 +36°C° 0 mm 1 m/s 759 mmHg 24%
    11:00 +38°C° 0 mm 2 m/s 758 mmHg 22%
    12:00 +39°C° 0 mm 2 m/s 758 mmHg 20%
    13:00 +39°C° 0 mm 3 m/s 757 mmHg 23%
    14:00 +38°C° 0 mm 4 m/s 757 mmHg 25%
    15:00 +38°C° 0 mm 4 m/s 757 mmHg 27%
    16:00 +36°C° 0 mm 3 m/s 757 mmHg 33%
    17:00 +34°C° 0 mm 3 m/s 757 mmHg 40%
    18:00 +31°C° 0 mm 2 m/s 757 mmHg 47%
    19:00 +30°C° 0 mm 2 m/s 757 mmHg 51%
    20:00 +29°C° 0 mm 1 m/s 757 mmHg 55%
    21:00 +25°C° 0 mm 0 m/s 758 mmHg 59%
    22:00 +25°C° 0 mm 0 m/s 758 mmHg 58%
    23:00 +27°C° 0 mm 1 m/s 758 mmHg 57%

    Mâine, 23 August, Vineri

    Timp Temperatura Precipitaţii Vânt Presiune Umiditate
    00:00 +27°C° 0 mm 1 m/s 758 mmHg 56%
    01:00 +26°C° 0 mm 1 m/s 758 mmHg 55%
    02:00 +26°C° 0 mm 1 m/s 758 mmHg 54%
    03:00 +26°C° 0 mm 1 m/s 758 mmHg 52%
    04:00 +26°C° 0 mm 1 m/s 759 mmHg 51%
    05:00 +27°C° 0 mm 1 m/s 759 mmHg 50%
    06:00 +27°C° 0 mm 1 m/s 759 mmHg 48%
    07:00 +29°C° 0 mm 1 m/s 759 mmHg 43%
    08:00 +32°C° 0 mm 1 m/s 759 mmHg 37%
    09:00 +35°C° 0 mm 1 m/s 759 mmHg 31%
    10:00 +37°C° 0 mm 2 m/s 758 mmHg 29%
    11:00 +38°C° 0 mm 2 m/s 758 mmHg 27%
    12:00 +39°C° 0 mm 3 m/s 758 mmHg 25%
    13:00 +39°C° 0 mm 3 m/s 758 mmHg 26%
    14:00 +39°C° 0 mm 3 m/s 757 mmHg 28%
    15:00 +38°C° 0 mm 4 m/s 757 mmHg 30%
    16:00 +36°C° 0 mm 3 m/s 757 mmHg 35%
    17:00 +35°C° 0 mm 2 m/s 757 mmHg 41%
    18:00 +32°C° 0 mm 1 m/s 757 mmHg 46%
    19:00 +31°C° 0 mm 1 m/s 757 mmHg 49%
    20:00 +29°C° 0 mm 1 m/s 758 mmHg 52%
    21:00 +26°C° 0 mm 0 m/s 758 mmHg 55%
    22:00 +26°C° 0 mm 0 m/s 758 mmHg 54%
    23:00 +28°C° 0 mm 1 m/s 758 mmHg 53%

    Poimâine, 24 August, Sâmbătă

    Timp Temperatura Precipitaţii Vânt Presiune Umiditate
    00:00 +28°C° 0 mm 1 m/s 758 mmHg 52%
    01:00 +28°C° 0 mm 1 m/s 758 mmHg 52%
    02:00 +27°C° 0 mm 1 m/s 758 mmHg 53%
    03:00 +25°C° 0 mm 0 m/s 758 mmHg 53%
    04:00 +25°C° 0 mm 0 m/s 758 mmHg 52%
    05:00 +28°C° 0 mm 1 m/s 759 mmHg 50%
    06:00 +28°C° 0 mm 1 m/s 759 mmHg 49%
    07:00 +30°C° 0 mm 1 m/s 759 mmHg 43%
    08:00 +33°C° 0 mm 1 m/s 759 mmHg 37%
    09:00 +36°C° 0 mm 1 m/s 758 mmHg 31%
    10:00 +38°C° 0 mm 2 m/s 758 mmHg 29%
    11:00 +39°C° 0 mm 3 m/s 758 mmHg 27%
    12:00 +40°C° 0 mm 3 m/s 757 mmHg 25%
    13:00 +40°C° 0 mm 3 m/s 757 mmHg 27%
    14:00 +39°C° 0 mm 3 m/s 756 mmHg 29%
    15:00 +38°C° 0 mm 3 m/s 756 mmHg 31%
    16:00 +37°C° 0 mm 3 m/s 756 mmHg 38%
    17:00 +35°C° 0 mm 3 m/s 756 mmHg 44%
    18:00 +32°C° 0 mm 2 m/s 757 mmHg 50%
    19:00 +30°C° 0 mm 2 m/s 757 mmHg 53%
    20:00 +29°C° 0 mm 1 m/s 758 mmHg 56%
    21:00 +28°C° 0 mm 1 m/s 759 mmHg 59%
    22:00 +28°C° 0 mm 1 m/s 759 mmHg 56%
    23:00 +28°C° 0 mm 1 m/s 759 mmHg 54%

    25 August, Duminică

    Timp Temperatura Precipitaţii Vânt Presiune Umiditate
    00:00 +28°C° 0 mm 1 m/s 759 mmHg 52%
    01:00 +28°C° 0 mm 1 m/s 759 mmHg 51%
    02:00 +28°C° 0 mm 1 m/s 759 mmHg 49%
    03:00 +28°C° 0 mm 1 m/s 759 mmHg 47%
    04:00 +28°C° 0 mm 1 m/s 759 mmHg 47%
    05:00 +28°C° 0 mm 1 m/s 759 mmHg 46%
    06:00 +28°C° 0 mm 1 m/s 760 mmHg 45%
    07:00 +30°C° 0 mm 1 m/s 759 mmHg 40%
    08:00 +34°C° 0 mm 2 m/s 759 mmHg 36%
    09:00 +36°C° 0 mm 2 m/s 759 mmHg 31%
    10:00 +37°C° 0 mm 2 m/s 759 mmHg 29%
    11:00 +38°C° 0 mm 3 m/s 759 mmHg 27%
    12:00 +39°C° 0 mm 3 m/s 758 mmHg 25%
    13:00 +39°C° 0 mm 3 m/s 758 mmHg 27%
    14:00 +39°C° 0 mm 3 m/s 758 mmHg 28%
    15:00 +38°C° 0 mm 4 m/s 758 mmHg 29%
    16:00 +36°C° 0 mm 3 m/s 758 mmHg 35%
    17:00 +34°C° 0 mm 2 m/s 758 mmHg 42%
    18:00 +31°C° 0 mm 2 m/s 758 mmHg 48%
    19:00 +30°C° 0 mm 1 m/s 758 mmHg 51%
    20:00 +29°C° 0 mm 1 m/s 759 mmHg 53%
    21:00 +26°C° 0 mm 0 m/s 759 mmHg 56%
    22:00 +26°C° 0 mm 0 m/s 759 mmHg 55%
    23:00 +25°C° 0 mm 0 m/s 759 mmHg 55%

    26 August, Luni

    Timp Temperatura Precipitaţii Vânt Presiune Umiditate
    00:00 +25°C° 0 mm 0 m/s 759 mmHg 54%
    01:00 +25°C° 0 mm 0 m/s 759 mmHg 53%
    02:00 +25°C° 0 mm 0 m/s 758 mmHg 52%
    03:00 +25°C° 0 mm 0 m/s 758 mmHg 51%
    04:00 +25°C° 0 mm 0 m/s 758 mmHg 51%
    05:00 +25°C° 0 mm 0 m/s 758 mmHg 52%
    06:00 +27°C° 0 mm 1 m/s 758 mmHg 53%
    07:00 +29°C° 0 mm 1 m/s 758 mmHg 47%
    08:00 +32°C° 0 mm 1 m/s 758 mmHg 41%
    09:00 +34°C° 0 mm 1 m/s 758 mmHg 35%
    10:00 +36°C° 0 mm 2 m/s 758 mmHg 32%
    11:00 +38°C° 0 mm 2 m/s 758 mmHg 28%
    12:00 +39°C° 0 mm 3 m/s 757 mmHg 25%
    13:00 +38°C° 0 mm 3 m/s 757 mmHg 26%
    14:00 +38°C° 0 mm 4 m/s 757 mmHg 28%
    15:00 +37°C° 0 mm 4 m/s 756 mmHg 29%
    16:00 +35°C° 0 mm 3 m/s 757 mmHg 33%
    17:00 +32°C° 0 mm 2 m/s 757 mmHg 37%
    18:00 +30°C° 0 mm 1 m/s 757 mmHg 41%
    19:00 +29°C° 0 mm 2 m/s 758 mmHg 44%
    20:00 +28°C° 0 mm 2 m/s 758 mmHg 47%
    21:00 +27°C° 0 mm 2 m/s 759 mmHg 50%
    22:00 +27°C° 0 mm 2 m/s 760 mmHg 50%
    23:00 +27°C° 0 mm 2 m/s 760 mmHg 51%

    27 August, Marţi

    Timp Temperatura Precipitaţii Vânt Presiune Umiditate
    00:00 +27°C° 0 mm 1 m/s 760 mmHg 51%
    01:00 +26°C° 0 mm 1 m/s 760 mmHg 48%
    02:00 +26°C° 0 mm 1 m/s 760 mmHg 45%
    03:00 +26°C° 0 mm 1 m/s 761 mmHg 42%
    04:00 +26°C° 0 mm 1 m/s 761 mmHg 41%
    05:00 +26°C° 0 mm 1 m/s 761 mmHg 41%
    06:00 +26°C° 0 mm 1 m/s 762 mmHg 40%
    07:00 +28°C° 0 mm 2 m/s 762 mmHg 38%
    08:00 +30°C° 0 mm 2 m/s 762 mmHg 35%
    09:00 +32°C° 0 mm 2 m/s 762 mmHg 33%
    10:00 +33°C° 0 mm 3 m/s 762 mmHg 34%
    11:00 +34°C° 0 mm 4 m/s 761 mmHg 35%
    12:00 +35°C° 0 mm 5 m/s 761 mmHg 36%
    13:00 +34°C° 0 mm 5 m/s 761 mmHg 36%
    14:00 +34°C° 0 mm 4 m/s 760 mmHg 36%
    15:00 +34°C° 0 mm 4 m/s 760 mmHg 36%
    16:00 +32°C° 0 mm 4 m/s 761 mmHg 42%
    17:00 +30°C° 0 mm 4 m/s 761 mmHg 49%
    18:00 +28°C° 0 mm 3 m/s 762 mmHg 56%
    19:00 +28°C° 0 mm 3 m/s 762 mmHg 59%
    20:00 +27°C° 0 mm 3 m/s 763 mmHg 63%
    21:00 +26°C° 0 mm 2 m/s 763 mmHg 67%
    22:00 +26°C° 0 mm 3 m/s 763 mmHg 67%
    23:00 +26°C° 0 mm 3 m/s 763 mmHg 67%
    Arată mai mult